Regional Weather Roundup
Issued by NWS

Home | Current Version | Previous Version | Text Only | Print | Product List | Glossary Off
Versions: 1 2 3 4 5 6 7 8 9 10 11 12 13 14 15 16 17 18 19 20 21 22 23 24 25 26 27 28 29 30 31 32 33 34 35 36 37 38 39 40 41 42 43 44 45 46 47 48 49 50

000
ASUS43 KMKX 252300
RWRWI

WISCONSIN REGIONAL WEATHER ROUNDUP
NATIONAL WEATHER SERVICE MILWAUKEE/SULLIVAN WI
600 PM CDT SAT APR 25 2015

NOTE: "FAIR" INDICATES FEW OR NO CLOUDS BELOW 12,000 FEET WITH NO
SIGNIFICANT WEATHER AND/OR OBSTRUCTIONS TO VISIBILITY.

WIZ001-002-006>008-014>016-023>028-260000-
NORTHWEST WISCONSIN

CITY           SKY/WX    TMP DP  RH WIND       PRES   REMARKS
SUPERIOR ARPT  SUNNY     39  28  64 E12G21    30.01S WCI  32
ASHLAND        SUNNY     42  26  53 NE16      30.01R
HAYWARD        SUNNY     50  22  33 NE15G23   29.93R
SIREN          SUNNY     58  28  31 NE16G24   29.89R
CUMBERLAND     SUNNY     59  23  25 NE13      29.86S
RICE LAKE      SUNNY     61  21  22 NE7       29.86S
CHETEK         SUNNY     60  25  26 NE6       29.85S
LADYSMITH      SUNNY     61  24  24 NE6       29.87S
EAU CLAIRE     SUNNY     61  21  21 E12       29.84S
MENOMONIE      SUNNY     61  19  19 E14       29.85R
NEW RICHMOND   SUNNY     61  17  18 NE10G20   29.86R
OSCEOLA        SUNNY     62  22  22 E9        29.88S
$$

WIZ003>005-009-010-017-018-260000-
NORTH CENTRAL WISCONSIN

CITY           SKY/WX    TMP DP  RH WIND       PRES   REMARKS
MANITOWISH WTR SUNNY     53  11  18 N10G17    29.89S
ARBOR VITAE    SUNNY     57  17  21 N8G20     29.87S
WOODRUFF       SUNNY     57  17  21 N8G20     29.87S
RHINELANDER    SUNNY     55  15  20 E10       29.88R
EAGLE RIVER    SUNNY     55   4  12 E10       29.87S
LAND O LAKES   SUNNY     53  17  24 N9        29.90R
PHILLIPS       SUNNY     56  22  26 NE13      29.86S
TOMAHAWK       SUNNY     56  15  19 CALM      29.86S
MEDFORD        SUNNY     56  22  26 NE9       29.85R
MERRILL        SUNNY     57  20  23 E9        29.86S
$$

WIZ029-030-035-036-043>047-260000-
CENTRAL WISCONSIN

CITY           SKY/WX    TMP DP  RH WIND       PRES   REMARKS
WAUSAU         MOSUNNY   57  15  19 NE10G17   29.84S
MOSINEE        SUNNY     55  16  21 NE10      29.86R
MARSHFIELD     MOSUNNY   58  17  20 NE9       29.84S
STEVENS POINT  MOSUNNY   53  17  24 E10       29.86R
WAUPACA        PTSUNNY   53  11  19 NE13G18   29.88S
WAUTOMA        NOT AVBL
WISC RAPIDS    MOSUNNY   55  14  19 E14G20    29.87R
CAMP DOUGLAS   NOT AVBL
$$

WIZ011>013-019>022-031-037>040-048>050-260000-
NORTHEAST WISCONSIN

CITY           SKY/WX    TMP DP  RH WIND       PRES   REMARKS
ANTIGO         SUNNY     53  14  21 NE8       29.86F
SHAWANO        MOSUNNY   51  17  26 E14       29.91R
OCONTO         MOSUNNY   47  14  27 E9        29.91S
STURGEON BAY   MOSUNNY   46  19  34 E7        29.93S
GREEN BAY      PTSUNNY   47  17  30 NE13      29.90S
MANITOWOC      NOT AVBL
APPLETON       MOSUNNY   48   7  18 NE16G24   29.88S
CLINTONVILLE   MOSUNNY   50  14  23 E12G20    29.89S
OSHKOSH        PTSUNNY   49  25  39 NE16      29.87R
$$

WIZ032>034-041-042-053>061-260000-
SOUTHWEST WISCONSIN

CITY           SKY/WX    TMP DP  RH WIND       PRES   REMARKS
LA CROSSE      PTSUNNY   59  19  21 E10       29.83R
SPARTA         PTSUNNY   57  11  16 E16       29.84R
VIROQUA        PTSUNNY   55  27  34 E16       29.83R
BOSCOBEL       PTSUNNY   52  29  41 E10       29.85R
PRAIRIE DU CHI CLOUDY    52  34  50 NE10      29.83R
PLATTEVILLE    CLOUDY    49  38  64 E13       29.81R
$$

WIZ056-057-062-063-064-067-068-260000-
SOUTH CENTRAL WISCONSIN

CITY           SKY/WX    TMP DP  RH WIND       PRES   REMARKS
REEDSBURG      MOSUNNY   53  22  30 E10       29.83S
BARABOO/DELLS  MOSUNNY   52  20  28 NE14G23   29.84R
LONE ROCK      NOT AVBL
MINERAL POINT  CLOUDY    50  34  53 NE16      29.81R
MADISON        PTSUNNY   51  29  42 NE16      29.83R
MIDDLETON      CLOUDY    51  29  42 NE15      29.83R
WATERTOWN      PTSUNNY   48  31  52 NE13G21   29.82R
MONROE         CLOUDY    45  36  70 NE18      29.80R
JANESVILLE     CLOUDY    48  32  53 E17       29.81R
$$

WIZ051-052-058>065-066-070>072-260000-
SOUTHEAST WISCONSIN

CITY           SKY/WX    TMP DP  RH WIND       PRES   REMARKS
MILWAUKEE      CLOUDY    39  29  67 N15G25    29.84R WCI  31
WAUKESHA       CLOUDY    43  25  49 NE12G17   29.83S
MILWAUKEE/TIMM MOSUNNY   45  19  36 NE15G23   29.84S
RACINE         CLOUDY    39  31  72 N17G26    29.84R WCI  30
BURLINGTON     CLOUDY    42  27  55 NE12      29.82R
KENOSHA        CLOUDY    42  31  64 NE13G22   29.82R
FOND DU LAC    PTSUNNY   51  15  23 NE15      29.86R
SHEBOYGAN      MOSUNNY   46  18  32 N12       29.86R
WEST BEND      PTSUNNY   46  21  36 NE13G21   29.85R
JUNEAU         CLOUDY    49  24  37 NE10G16   29.85R
$$

LSZ147-162-260000-
LAKE SUPERIOR

STATION/POSITION TIME  TEMP    WIND        PRES    WAVE
                       AIR SEA DIR/SP/G            HT/PER
                 (UTC) (F)     (DEG/KT/KT) (MB)    (FT/S)
W MID LAKE BUOY  2150   35 35   50/ 12/ 14 1017.8S   3/ 4
DEVILS ISLAND    2200   36      60/ 17/ 18 1017.2R
PORT WING        2200   38      30/ 16/ 18 1016.3
SAXON HARBOR     2200   38      10/  7/  9 1015.2S
$$

LMZ867-665-643>646-260000-
LAKE MICHIGAN

STATION/POSITION TIME  TEMP    WIND        PRES    WAVE
                       AIR SEA DIR/SP/G            HT/PER
                 (UTC) (F)     (DEG/KT/KT) (MB)    (FT/S)
CHAMBERS ISLAND  2200   43      20/  8/ 14 1013.2S
NORTHPORT PIER   2200   45      50/  9/ 12 1012.9S
SISTER BAY       2117   52     100/ 16/ 26   N/A
KEWAUNEE LAKESHO 2200   40      30/ 13/ 21 1011.7R
SHEBOYGAN LAKESH 2200   39      10/ 21/ 24 1011.9F
PORT WASHINGTON  2200   43      20/ 13/ 22 1011.5
MILWAUKEE LAKESH 2200   38      20/ 21/ 25   N/A
KENOSHA   LAKESH 2200   40      10/ 23/ 26 1009.1R
$$

TC  - TEMPERATURE IN CELSIUS
VSB - VISIBILITY IN STATUTE MILES
WCI - WIND CHILL INDEX
HX  - HEAT INDEX



USA.gov is the U.S. government's official web portal to all federal, state and local government web resources and services.